Regional Weather Roundup
Issued by NWS

Home | Current Version | Previous Version | Text Only | Print | Product List | Glossary Off
Versions: 1 2 3 4 5 6 7 8 9 10 11 12 13 14 15 16 17 18 19 20 21 22 23 24 25 26 27 28

000
ASUS45 KCYS 270110
RWRWY

WYOMING REGIONAL WEATHER ROUNDUP
NATIONAL WEATHER SERVICE CHEYENNE WY
700 PM MDT MON SEP 26 2016

NOTE:  "FAIR" INDICATES FEW OR NO CLOUDS BELOW 12,000 FEET
WITH NO SIGNIFICANT WEATHER AND/OR OBSTRUCTIONS TO VISIBILITY.

WYZ001-270200-
YELLOWSTONE NATIONAL PARK

CITY           SKY/WX    TMP DP  RH WIND       PRES   REMARKS
LK YELLOWSTONE   N/A     50  44  80 CALM      30.47S
W YELLOWSTONE  NOT AVBL

$$
WYZ002>013-054>058-071-098>099-270200-
NORTHERN WYOMING

CITY           SKY/WX    TMP DP  RH WIND       PRES   REMARKS
JACKSON        CLEAR     64  43  45 CALM      30.36F
CODY           FAIR      63  47  55 E7        30.30S
GREYBULL       FAIR      67  46  47 CALM      30.24F
WORLAND        FAIR      63  49  60 NE3       30.25F
SHERIDAN       FAIR      60  51  72 SW5       30.24F
BUFFALO        FAIR      63  44  50 SW3       30.30S
GILLETTE       FAIR      54  48  80 W7        30.26S
HULETT         FAIR      61  41  48 CALM      30.26S
NEWCASTLE      FAIR      59  41  51 N7        30.27R

$$
WYZ014>020-022>026-101>103-270200-
CENTRAL WYOMING

CITY           SKY/WX    TMP DP  RH WIND       PRES   REMARKS
BIG PINEY      FAIR      64  38  38 CALM      30.39S
PINEDALE       FAIR      63  36  36 SE3       30.40S
DUBOIS         FAIR      57  41  54 SE8       30.40R
LANDER         FAIR      64  45  49 CALM      30.32S
RIVERTON       FAIR      63  44  50 CALM      30.33F
CASPER         FAIR      60  44  55 W7        30.31R
DOUGLAS        FAIR      64  42  44 CALM      30.29S

$$
WYZ021-027>030-104>119-270200-
SOUTHERN WYOMING

CITY           SKY/WX    TMP DP  RH WIND       PRES   REMARKS
EVANSTON       FAIR      64  34  32 N3        30.40S
FORT BRIDGER   FAIR      66  36  33 CALM      30.42S
ROCK SPRINGS   FAIR      62  37  39 CALM      30.39S
DIXON          FAIR      63  39  41 CALM      30.41R
RAWLINS        FAIR      59  37  44 N8        30.40R
SARATOGA       FAIR      55  36  47 N8        30.41S
LARAMIE        FAIR      58  37  45 N8        30.40R
CHEYENNE       FAIR      63  38  39 NE7       30.35R
TORRINGTON     FAIR      63  41  44 N10       30.24S
PINE BLUFFS    FAIR      61  36  39 NE5       30.32R

$$




USA.gov is the U.S. government's official web portal to all federal, state and local government web resources and services.